Tracking 27401 objects as of 4-Jun-2023
HD Live streaming from Space Station
objects crossing your sky now

COSMOS 2251 DEB

Track COSMOS 2251 DEB now!
10-day predictions


NORAD ID: 35885
Int'l Code: 1993-036ATY
Perigee: 766.2 km
Apogee: 800.1 km
Inclination: 74.0 °
Period: 100.4 minutes
Semi major axis: 7154 km
RCS: 0.0099 m2 (small)
Launch date: June 16, 1993
Source: Commonwealth of Independent States (former USSR) (CIS)
Launch site: PLESETSK MISSILE AND SPACE COMPLEX (PKMTR)

Note: This is SATELLITE DEBRIS
Your satellite tracking list
Your tracking list is empty




NASA's NSSDC Master Catalog

Two Line Element Set (TLE):
1 35885U 93036ATY 23154.82389552  .00000644  00000-0  23599-3 0  9992
2 35885  74.0279 190.1118 0023734 139.2868 221.0064 14.34712197517677
Source of the keplerian elements: AFSPC